Location: La B�doule
(43.2468°N, 5.5934°E)
Time: 21:38:11
(UTC+00:00)

Cosmos 1825 - Pass Details

Date: 07 June 2020
Orbit: 504 x 507 km, 82.5° (Epoch: 04 July)

Event Time Altitude Azimuth Distance (km) Brightness Sun altitude
Exits shadow 01:55:30 14° 151° (SSE) 1,461 4.2 -16.7°
Maximum altitude 01:58:12 33° 92° (E) 865 3.6 -16.4°
Drops below altitude 10° 02:01:37 10° 27° (NNE) 1,724 6.2 -16.0°
Sets 02:03:52 0° 18° (NNE) 2,614 7.3 -15.8°
